Terminal Aerodrome Forecast
Issued by NWS Wilmington, NC

Home | Current Version | Previous Version | Text Only | Print | Product List | Glossary On
Versions: 1 2 3 4 5 6 7 8 9 10 11 12
000
FTUS42 KILM 202330
TAFMYR
TAF
KMYR 202330Z 2100/2124 14008KT P6SM SKC
     FM210100 VRB03KT P6SM FEW250
     FM210600 00000KT 3SM BR SKC
     FM211200 04006KT P6SM SCT250=

USA.gov is the U.S. government's official web portal to all federal, state and local government web resources and services.